WetterOnline ( https://www.wetteronline.de )

Wetter aktuell Garmisch-Partenkirchen

Aktuelles Wetter: Garmisch-Partenkirchen (719m)

6-stündlich | Neueste Meldungen
Ortszeit Temperatur Wetter
Mi, 27.05. 8:00 9.4° C leicht bewölkt
Mi, 27.05. 2:00 5.4° C wolkenlos
Di, 26.05. 20:00 14.1° C bedeckt
Di, 26.05. 14:00 16.0° C wolkig
Di, 26.05. 8:00 11.4° C leicht bewölkt
Di, 26.05. 2:00 9.2° C bewölkt
Mo, 25.05. 20:00 13.3° C bewölkt
Mo, 25.05. 14:00 14.2° C bedeckt
Ortszeit Temperatur Wetter
Mi, 27.05. 9:00 11.6° C leicht bewölkt
Mi, 27.05. 8:50 11.6° C wolkig
Mi, 27.05. 8:40 11.8° C wolkig
Mi, 27.05. 8:30 10.1° C leicht bewölkt
Mi, 27.05. 8:20 10.1° C leicht bewölkt
Mi, 27.05. 8:10 10.6° C leicht bewölkt
Mi, 27.05. 8:00 9.4° C leicht bewölkt
Mi, 27.05. 7:30 7.7° C leicht bewölkt
Mi, 27.05. 7:00 5.1° C leicht bewölkt
Mi, 27.05. 6:30 2.9° C wolkig
Mi, 27.05. 6:00 2.9° C fast wolkenlos
Ortszeit Relative Feuchte Sichtweite
Mi, 27.05. 8:00 72% 55 km
Mi, 27.05. 2:00 93% 50 km
Di, 26.05. 20:00 49% >70 km
Di, 26.05. 14:00 48% 55 km
Di, 26.05. 8:00 85% 35 km
Di, 26.05. 2:00 94% 45 km
Mo, 25.05. 20:00 67% >70 km
Mo, 25.05. 14:00 61% >70 km
Ortszeit Relative Feuchte Sichtweite
Mi, 27.05. 9:00 59% 60 km
Mi, 27.05. 8:50 59% -
Mi, 27.05. 8:40 60% -
Mi, 27.05. 8:30 66% >70 km
Mi, 27.05. 8:20 66% -
Mi, 27.05. 8:10 69% -
Mi, 27.05. 8:00 72% 55 km
Mi, 27.05. 7:30 78% 55 km
Mi, 27.05. 7:00 91% 60 km
Mi, 27.05. 6:30 97% 29 km
Mi, 27.05. 6:00 97% 29 km
Ortszeit Niederschlagsmenge Niederschlagsart
Mi, 27.05. 8:00 0.0 l/m2 in 12 Std. -
Mi, 27.05. 2:00 0.0 l/m2 in 6 Std. -
Di, 26.05. 20:00 0.0 l/m2 in 12 Std. -
Di, 26.05. 14:00 0.0 l/m2 in 6 Std. -
Di, 26.05. 8:00 2 l/m2 in 12 Std. Regen
Di, 26.05. 2:00 0.2 l/m2 in 6 Std. Regen
Mo, 25.05. 20:00 0.1 l/m2 in 12 Std. Regen
Mo, 25.05. 14:00 0.1 l/m2 in 6 Std. Regen
Ortszeit Niederschlagsmenge Niederschlagsart
Mi, 27.05. 9:00 0.0 l/m2 in 1 Std. -
Mi, 27.05. 8:50 keine Meldung -
Mi, 27.05. 8:40 keine Meldung -
Mi, 27.05. 8:30 0.0 l/m2 in 1 Std. -
Mi, 27.05. 8:20 keine Meldung -
Mi, 27.05. 8:10 keine Meldung -
Mi, 27.05. 8:00 0.0 l/m2 in 1 Std. -
Mi, 27.05. 7:30 0.0 l/m2 in 1 Std. -
Mi, 27.05. 7:00 0.0 l/m2 in 1 Std. -
Mi, 27.05. 6:30 0.0 l/m2 in 1 Std. -
Mi, 27.05. 6:00 0.0 l/m2 in 1 Std. -
Ortszeit Stärke Spitze Richtung
km/h Bft. km/h Grad Sektor
Mi, 27.05. 8:00 2 1 11 100° O
Mi, 27.05. 2:00 4 1 18 260° W
Di, 26.05. 20:00 7 2 36 40° NO
Di, 26.05. 14:00 14 3 29 40° NO
Di, 26.05. 8:00 2 1 13 130° SO
Di, 26.05. 2:00 4 1 14 230° SW
Mo, 25.05. 20:00 9 2 37 60° NO
Mo, 25.05. 14:00 6 1 17 210° SW
Ortszeit Stärke Spitze Richtung
km/h Bft. km/h Grad Sektor
Mi, 27.05. 9:00 2 1 7 120° SO
Mi, 27.05. 8:50 2 1 - 120° SO
Mi, 27.05. 8:40 4 1 - 100° O
Mi, 27.05. 8:30 4 1 7 50° NO
Mi, 27.05. 8:20 4 1 - 50° NO
Mi, 27.05. 8:10 2 1 - 90° O
Mi, 27.05. 8:00 2 1 6 100° O
Mi, 27.05. 7:30 0 0 7 - -
Mi, 27.05. 7:00 2 1 11 230° SW
Mi, 27.05. 6:30 6 1 11 220° SW
Mi, 27.05. 6:00 6 1 11 220° SW
Ortszeit Untergrenze Bedeckung Gattung
total tief tief mittel hoch
Mi, 27.05. 8:00 9000 m 6/8 0/8 - - -
Mi, 27.05. 2:00 - 0/8 0/8 - - -
Di, 26.05. 20:00 1800 m 8/8 8/8 - - -
Di, 26.05. 14:00 1500 m 5/8 5/8 - - -
Di, 26.05. 8:00 1500 m 4/8 4/8 - - -
Di, 26.05. 2:00 1350 m 7/8 7/8 - - -
Mo, 25.05. 20:00 1500 m 7/8 7/8 - - -
Mo, 25.05. 14:00 1500 m 8/8 8/8 - - -
Ortszeit Bedeckungsgrad in Achtel und Wolkenuntergrenze
Mi, 27.05. 9:00 8(8700m) 8(9000m) 8(9000m)
Mi, 27.05. 8:50 8(8700m) 8(9000m) 8(9000m)
Mi, 27.05. 8:40 6(8700m) 6(9000m) 7(9000m)
Mi, 27.05. 8:30 1(9000m) 5(9000m)
Mi, 27.05. 8:20 1(9000m) 5(9000m)
Mi, 27.05. 8:10 2(9000m) 6(9000m)
Mi, 27.05. 8:00 5(9000m) 6(9000m)
Mi, 27.05. 7:30 3(9000m) 6(9000m)
Mi, 27.05. 7:00 5(9000m)
Mi, 27.05. 6:30 7(9000m)
Mi, 27.05. 6:00 2(9000m)
Ortszeit Luftdruck NN (hPa) Tendenz (hPa in 3 Std.)
Mi, 27.05. 8:00 1034 - 0,4
Mi, 27.05. 2:00 1036 - 0,1
Di, 26.05. 20:00 1032 + 0,6
Di, 26.05. 14:00 1030 - 0,7
Di, 26.05. 8:00 1033 + 0,5
Di, 26.05. 2:00 1033 - 0,3
Mo, 25.05. 20:00 1030 + 0,5
Mo, 25.05. 14:00 1030 - 1,0
Ortszeit Luftdruck NN (hPa) Tendenz (hPa in 3 Std.)
Mi, 27.05. 9:00 1033 - 0,5
Mi, 27.05. 8:50 1033 keine Meldung
Mi, 27.05. 8:40 1033 keine Meldung
Mi, 27.05. 8:30 1033 - 0,4
Mi, 27.05. 8:20 1033 keine Meldung
Mi, 27.05. 8:10 1033 keine Meldung
Mi, 27.05. 8:00 1034 - 0,4
Mi, 27.05. 7:30 1035 - 0,3
Mi, 27.05. 7:00 1035 - 0,4
Mi, 27.05. 6:30 1036 - 0,4
Mi, 27.05. 6:00 1036 - 0,3
Ortszeit Schneehöhe (cm)
Mi, 27.05. 8:00 -
Mi, 27.05. 2:00 -
Di, 26.05. 20:00 -
Di, 26.05. 14:00 -
Di, 26.05. 8:00 -
Di, 26.05. 2:00 -
Mo, 25.05. 20:00 -
Mo, 25.05. 14:00 -
Ortszeit Schneehöhe (cm)
Mi, 27.05. 9:00 -
Mi, 27.05. 8:50 -
Mi, 27.05. 8:40 -
Mi, 27.05. 8:30 -
Mi, 27.05. 8:20 -
Mi, 27.05. 8:10 -
Mi, 27.05. 8:00 -
Mi, 27.05. 7:30 -
Mi, 27.05. 7:00 -
Mi, 27.05. 6:30 -
Mi, 27.05. 6:00 -
Link zu dieser Seite / Seite empfehlen

Das Wetter in ...